Weather Roundup
Issued by NWS Chicago, IL

Home | Current Version | Previous Version | Graphics & Text | Print | Product List | Glossary On
Versions: 1 2 3 4 5 6 7 8 9 10 11 12 13 14 15 16 17 18 19 20 21 22 23 24 25 26 27 28 29 30 31 32 33 34 35 36 37 38 39 40 41 42 43 44 45 46 47 48 49 50
000
NZUS59 KLOT 141208
HRRLOT

CHICAGO AREA WEATHER ROUNDUP
NATIONAL WEATHER SERVICE CHICAGO/ROMEOVILLE IL
600 AM CST SUN FEB 14 2016

NOTE: "FAIR" INDICATES FEW OR NO CLOUDS BELOW 12,000 FEET WITH NO
SIGNIFICANT WEATHER AND/OR OBSTRUCTIONS TO VISIBILITY.

* THESE STATIONS ARE NOT UNDER NWS QUALITY CONTROL. THEY ALSO MAY NOT
  REPORT WEATHER SUCH AS PRECIPITATION OR FOG.

ILZ005-006-012>014-019>023-141300-
NORTHEAST ILLINOIS

CITY           SKY/WX    TMP DP  RH WIND       PRES   REMARKS
OHARE          CLOUDY    14   2  58 SE10      30.36F WCI   1
6HR MIN TEMP:   9; 6HR MAX TEMP:  14;

MIDWAY         CLOUDY    15   0  51 SE12      30.38F WCI   2
6HR MIN TEMP:  13; 6HR MAX TEMP:  15;

AURORA         CLOUDY    15   4  61 SE12      30.35F WCI   2
6HR MIN TEMP:  12; 6HR MAX TEMP:  15;

LANSING*       PTCLDY    14   2  60 SE10      30.40F WCI   1
JOLIET*        CLOUDY    16   5  63 SE10      30.37F WCI   3
WAUKEGAN       PTCLDY    10   0  63 S7        30.36F WCI  -1
6HR MIN TEMP:   2; 6HR MAX TEMP:  10;

DUPAGE AIRPORT PTCLDY    13   0  56 SE10      30.33F WCI   0
6HR MIN TEMP:  10; 6HR MAX TEMP:  14;

WHEELING       PTCLDY    13   2  61 SE9       30.38F WCI   1
6HR MIN TEMP:   7; 6HR MAX TEMP:  13;

KANKAKEE*      CLOUDY    15   4  61 E13       30.38F WCI   1
MORRIS*        CLOUDY    15   5  65 SE10      30.33F WCI   2
LEWIS AIRPORT* MOCLDY    14   3  62 SE9       30.36F WCI   1
$$

WIZ051-052-058>065-066-070>072-141300-
SOUTHEAST WISCONSIN

CITY           SKY/WX    TMP DP  RH WIND       PRES   REMARKS
MILWAUKEE      MOCLDY     8  -1  66 CALM      30.36F
6HR MIN TEMP:   2; 6HR MAX TEMP:   8;

KENOSHA*       PTCLDY     7  -2  66 S5        30.36F WCI  -2
RACINE*        CLOUDY     9  -1  64 SW8       30.38F WCI  -3
BURLINGTON     CLOUDY    -1  -5  84 NE3       30.34F
WAUKESHA       CLEAR     -2  -8  78 CALM      30.35F
WEST BEND      CLOUDY    -4  -9  77 CALM      30.34F
$$

INZ001>003-010>013-019-020-141300-
NORTHWEST INDIANA

CITY           SKY/WX    TMP DP  RH WIND       PRES   REMARKS
GARY*          MOCLDY    16   1  53 SE6       30.41F WCI   7
MICHIGAN CITY* NOT AVBL
RENSSELAER*    NOT AVBL
VALPARAISO     PTCLDY    11   3  70 SE8       30.40F WCI  -1
$$

LMZ740>746-141300-
SOUTHERN LAKE MICHIGAN

STATION/POSITION TIME  SKY/WX   TEMP WIND        PRES    VSBY
                                AIR  DIR/SP/G
                 (UTC)          (F)  (DEG/KT/KT) (MB)    (MI)
HARRISON CRIB    1100            16  170/ 18/ 22   N/A
BURNHAM HARBOR   1200            15  160/ 11/ 15   N/A
CALUMET HARBOR   1100            13  150/  8/ 12 1029.0F
BURNS HARBOR     1100            12  150/  7/ 16 1030.8S
MICHIGAN CITY    1100             9  140/  9/ 11   N/A
$$

ABBREVIATIONS USED IN REMARKS
   TC - TEMPERATURE IN CELSIUS
  WCI - WIND CHILL INDEX
   HX - HEAT INDEX
  VSB - VISIBILITY
$$



USA.gov is the U.S. government's official web portal to all federal, state and local government web resources and services.